Weather History for KFKS - September, 2012

Change the Weather History Date:

Sunday, September 16, 2012

  Actual Average (KTVC) Record (KTVC)
Temperature  
Mean Temperature 64 °F 60 °F  
Max Temperature 75 °F 70 °F 90 °F (1955)
Min Temperature 53 °F 50 °F 32 °F (1964)
Degree Days  
Heating Degree Days 1 6  
Month to date heating degree days 69  
Since 1 July heating degree days 138  
Cooling Degree Days 0 1  
Month to date cooling degree days 28  
Year to date cooling degree days 397  
Growing Degree Days 14 (Base 50)    
Moisture  
Dew Point 53 °F    
Average Humidity 61    
Maximum Humidity 86    
Minimum Humidity 43    
Precipitation  
Precipitation 0.00 in 0.11 in 1.45 in (1942)
Month to date precipitation 1.89  
Year to date precipitation 23.00  
Sea Level Pressure  
Sea Level Pressure 30.01 in    
Wind  
Wind Speed 4 mph (SSW)    
Max Wind Speed 15 mph    
Max Gust Speed 24 mph    
Visibility 10 miles    
Events      
T = Trace of Precipitation, MM = Missing Value Source: NWS Daily Summary

Daily Weather History Graph

Daily Weather History Graph

Search for Another Location

Airport or City:

Trip Planner

Search our weather history database for the weather conditions in past years. The results will help you decide how hot, cold, wet, or windy it might be!

Date:

Astronomy

Sep. 16, 2012 Rise Set
Actual Time 7:25 AM EDT 7:52 PM EDT
Civil Twilight 6:56 AM EDT 8:21 PM EDT
Nautical Twilight 6:21 AM EDT 8:56 PM EDT
Astronomical Twilight 5:45 AM EDT 9:31 PM EDT
Moon 8:08 AM EDT (9/16) 7:51 PM EDT (9/16)
Length of Visible Light 13h 25m
Length of Day
12h 27m
New Moon, 0% of the Moon is Illuminated
Sep 16
New Moon
Sep 22
First Quarter
Sep 29
Full
Oct 8
Last Quarter
Oct 15
New

Hourly Weather History & Observations

Time (EDT) Temp. Dew Point Humidity Pressure Visibility Wind Dir Wind Speed Gust Speed Precip Events Conditions
12:14 AM 54.0 °F 49.3 °F 84% 30.10 in 10.0 mi Calm Calm - N/A   Clear
12:34 AM 53.8 °F 49.1 °F 84% 30.09 in 10.0 mi Calm Calm - N/A   Clear
12:54 AM 54.9 °F 49.6 °F 83% 30.08 in 10.0 mi Calm Calm - N/A   Clear
1:14 AM 53.8 °F 48.7 °F 83% 30.08 in 10.0 mi Calm Calm - N/A   Clear
1:35 AM 53.8 °F 48.6 °F 82% 30.08 in 10.0 mi Calm Calm - N/A   Clear
1:55 AM 54.0 °F 48.6 °F 82% 30.08 in 10.0 mi Calm Calm - N/A   Clear
2:15 AM 55.9 °F 50.9 °F 83% 30.07 in 10.0 mi Calm Calm - N/A   Clear
2:35 AM 57.2 °F 52.3 °F 84% 30.06 in 10.0 mi Calm Calm - N/A   Clear
2:55 AM 61.9 °F 55.2 °F 79% 30.06 in 10.0 mi Calm Calm - N/A   Clear
3:15 AM 61.3 °F 56.3 °F 83% 30.05 in 10.0 mi Calm Calm - N/A   Clear
3:35 AM 58.8 °F 54.0 °F 84% 30.05 in 10.0 mi Calm Calm - N/A   Clear
3:55 AM 61.2 °F 57.0 °F 86% 30.05 in 10.0 mi Calm Calm - N/A   Clear
4:15 AM 64.2 °F 59.4 °F 84% 30.05 in 10.0 mi Calm Calm - N/A   Clear
4:36 AM 64.8 °F 59.5 °F 83% 30.04 in 10.0 mi Calm Calm - N/A   Clear
4:56 AM 63.1 °F 58.3 °F 84% 30.04 in 10.0 mi Calm Calm - N/A   Clear
5:11 AM 61.3 °F 57.2 °F 86% 30.04 in 10.0 mi Calm Calm - N/A   Clear
5:31 AM 61.0 °F 56.3 °F 85% 30.04 in 10.0 mi Calm Calm - N/A   Clear
5:51 AM 60.8 °F 56.1 °F 85% 30.04 in 10.0 mi Calm Calm - N/A   Clear
6:11 AM 58.3 °F 53.8 °F 85% 30.04 in 10.0 mi Calm Calm - N/A   Clear
6:51 AM 59.9 °F 55.6 °F 86% 30.04 in 10.0 mi Calm Calm - N/A   Clear
7:11 AM 65.8 °F 55.6 °F 69% 30.04 in 10.0 mi SW 3.5 mph - N/A   Clear
7:32 AM 66.7 °F 55.8 °F 68% 30.05 in 10.0 mi SW 4.6 mph - N/A   Clear
8:32 AM 68.9 °F 56.5 °F 65% 30.05 in 10.0 mi WSW 3.5 mph - N/A   Clear
8:52 AM 69.8 °F 56.1 °F 62% 30.05 in 10.0 mi SSW 8.1 mph - N/A   Clear
9:12 AM 70.7 °F 55.8 °F 59% 30.05 in 10.0 mi SW 5.8 mph - N/A   Clear
9:32 AM 71.8 °F 55.6 °F 57% 30.04 in 10.0 mi WSW 4.6 mph - N/A   Clear
9:52 AM 72.7 °F 55.4 °F 55% 30.04 in 10.0 mi SW 8.1 mph - N/A   Clear
10:13 AM 72.5 °F 55.4 °F 55% 30.04 in 10.0 mi SSW 6.9 mph - N/A   Clear
10:33 AM 71.6 °F 57.6 °F 61% 30.04 in 10.0 mi SSW 6.9 mph - N/A   Clear
10:53 AM 71.8 °F 57.4 °F 60% 30.04 in 10.0 mi SW 6.9 mph - N/A   Clear
11:13 AM 72.0 °F 56.7 °F 58% 30.04 in 10.0 mi SSW 9.2 mph - N/A   Clear
11:33 AM 73.9 °F 55.8 °F 53% 30.04 in 10.0 mi SW 9.2 mph 17.3 mph N/A   Clear
11:53 AM 74.5 °F 55.8 °F 52% 30.04 in 10.0 mi SW 8.1 mph 17.3 mph N/A   Clear
12:13 PM 75.2 °F 56.5 °F 52% 30.04 in 10.0 mi SW 10.4 mph 18.4 mph N/A   Clear
12:33 PM 74.1 °F 55.8 °F 53% 30.03 in 10.0 mi SW 11.5 mph 19.6 mph N/A   Clear
12:53 PM 74.5 °F 55.9 °F 52% 30.02 in 10.0 mi SW 12.7 mph 18.4 mph N/A   Clear
1:14 PM 74.7 °F 55.8 °F 52% 30.02 in 10.0 mi SW 11.5 mph 21.9 mph N/A   Clear
1:34 PM 74.3 °F 55.2 °F 51% 30.02 in 10.0 mi SW 9.2 mph 18.4 mph N/A   Clear
1:54 PM 74.3 °F 55.2 °F 51% 30.01 in 10.0 mi SSW 15.0 mph 18.4 mph N/A   Clear
2:14 PM 74.7 °F 55.4 °F 51% 30.01 in 10.0 mi SW 10.4 mph 18.4 mph N/A   Clear
2:34 PM 74.3 °F 54.9 °F 51% 30.00 in 10.0 mi SSW 12.7 mph 19.6 mph N/A   Clear
2:54 PM 74.5 °F 54.5 °F 50% 30.00 in 10.0 mi SW 11.5 mph 18.4 mph N/A   Clear
3:14 PM 75.0 °F 55.6 °F 51% 30.00 in 10.0 mi SSW 10.4 mph 16.1 mph N/A   Clear
3:34 PM 74.3 °F 54.0 °F 49% 30.00 in 10.0 mi SSW 15.0 mph - N/A   Clear
3:54 PM 74.7 °F 55.6 °F 51% 29.99 in 10.0 mi SSW 9.2 mph - N/A   Clear
4:15 PM 75.0 °F 54.9 °F 49% 29.98 in 10.0 mi SSW 11.5 mph - N/A   Clear
4:35 PM 74.5 °F 54.5 °F 50% 29.98 in 10.0 mi SSW 11.5 mph 20.7 mph N/A   Clear
4:55 PM 74.3 °F 54.0 °F 49% 29.96 in 10.0 mi South 12.7 mph 20.7 mph N/A   Clear
5:15 PM 74.3 °F 53.1 °F 47% 29.96 in 10.0 mi SSW 15.0 mph 21.9 mph N/A   Clear
5:35 PM 73.8 °F 53.6 °F 49% 29.95 in 10.0 mi SSW 11.5 mph 17.3 mph N/A   Clear
5:55 PM 73.6 °F 52.9 °F 48% 29.95 in 10.0 mi South 13.8 mph 24.2 mph N/A   Clear
6:15 PM 73.4 °F 51.3 °F 46% 29.95 in 10.0 mi South 12.7 mph 18.4 mph N/A   Clear
6:35 PM 73.4 °F 49.6 °F 43% 29.95 in 10.0 mi South 11.5 mph 19.6 mph N/A   Clear
6:56 PM 72.9 °F 48.9 °F 43% 29.94 in 10.0 mi South 12.7 mph 19.6 mph N/A   Clear
7:16 PM 72.3 °F 50.2 °F 46% 29.94 in 10.0 mi South 11.5 mph 18.4 mph N/A   Clear
7:31 PM 71.8 °F 50.9 °F 48% 29.94 in 10.0 mi South 10.4 mph 17.3 mph N/A   Clear
7:51 PM 71.2 °F 50.5 °F 48% 29.94 in 10.0 mi South 9.2 mph 18.4 mph N/A   Clear
8:11 PM 70.9 °F 49.8 °F 47% 29.93 in 10.0 mi South 10.4 mph 16.1 mph N/A   Clear
8:31 PM 70.3 °F 47.7 °F 44% 29.94 in 10.0 mi South 6.9 mph - N/A   Clear
8:51 PM 69.3 °F 47.3 °F 45% 29.95 in 10.0 mi SSE 5.8 mph - N/A   Clear
9:11 PM 68.0 °F 47.5 °F 48% 29.95 in 10.0 mi SSE 5.8 mph - N/A   Clear
9:32 PM 67.8 °F 47.8 °F 49% 29.94 in 10.0 mi SSE 6.9 mph - N/A   Clear
9:52 PM 67.1 °F 48.2 °F 51% 29.94 in 10.0 mi SSE 5.8 mph - N/A   Clear
10:12 PM 66.7 °F 48.6 °F 52% 29.94 in 10.0 mi SSE 6.9 mph - N/A   Clear
10:32 PM 67.6 °F 48.6 °F 50% 29.94 in 10.0 mi South 6.9 mph - N/A   Clear
10:52 PM 68.0 °F 48.7 °F 50% 29.93 in 10.0 mi SSE 5.8 mph - N/A   Clear
11:12 PM 67.5 °F 48.2 °F 50% 29.93 in 10.0 mi SSE 6.9 mph - N/A   Clear
11:32 PM 67.8 °F 49.1 °F 51% 29.93 in 10.0 mi South 6.9 mph - N/A   Clear
11:52 PM 68.9 °F 50.9 °F 53% 29.93 in 10.0 mi South 9.2 mph - N/A   Clear